2023-193D

Last updated on Sun Feb 02 2025 00:02:11 GMT+0000 (Coordinated Universal Time)

1 58556U 23193D 25032.56222594 .04470300 24543-5 61338-3 0 9999 2 58556 97.2189 57.4236 0004761 214.8834 243.2720 16.35275856 65540

Satellite not in orbit

2023-193D